Weather in Zarechye

Russia / Kaliningrad Oblast     54°47′16″N   20°53′03″E
temp.,
°C
wind,
m/s
gust,
m/s
humid.,
%
clouds,
%
prec.,
mm/h
press.,
hPa
HPBL,
m
24 may, tue
tue2423:00+8e22735 0.0 101220
02:00+7ese349114 0.0 101263
05:00+7se368855 0.0 1011105
08:00+14sse587220 0.0 1011416
11:00+18sse79565 0.0 10101497
14:00+20sse7105087 0.0 10101962
17:00+18sse5962100 0.0 1010902
20:00+15s3978100 0.1 1010321
25 may, wed
wed2523:00+13sse51394100 0.6 1011519
02:00+13sse51196100 1.1 1011413
05:00+13sse3797100 0.0 1011262
08:00+14s2597100 0.0 1011309
11:00+13wnw3697100 1.6 1012356
14:00+16wnw6876100 1.9 1013900
17:00+13nnw2389100 1.9 1014372
20:00+12w1189100 1.9 101311
26 may, thu
thu2623:00+9sw22935 0.0 101427
02:00+8sw33935 0.0 101343
05:00+8sw38965 0.0 1012150
08:00+14wsw5107911 0.1 1012554
11:00+15wsw61171100 0.6 10111269
14:00+16w9148118 2.3 10101437
17:00+15w916660 0.5 10111794
20:00+12w814744 0.5 1011918
27 may, fri
fri2723:00+11w714755 0.0 1011753
02:00+10wsw61277100 0.0 1010614
05:00+9wsw61090100 0.3 1008561
08:00+10sw41097100 1.4 1006553
11:00+13w91489100 1.0 10041169
14:00+14w1014545 1.3 10051868
17:00+12w915685 0.3 10051677
20:00+11w81471100 0.3 10031231
28 may, sat
sat2823:00+8wsw81588100 0.4 1003910
02:00+7wsw81590100 1.7 1001916
05:00+8wsw71393100 1.9 10001071
08:00+9wsw7119499 3.1 10001064
11:00+11wnw688285 1.4 10011179
14:00+13nw796331 2.1 10031526
17:00+13nw696571 0.1 10061223
20:00+10wnw5108765 0.1 1008648